Time,TemperatureF,DewpointF,PressureIn,WindDirection,WindDirectionDegrees,WindSpeedMPH,WindSpeedGustMPH,Humidity,HourlyPrecipIn,Conditions,Clouds,dailyrainin,SoftwareType,DateUTC
2013-08-06 00:02:00,66.1,58.3,29.92,South,191,0.0,0.0,76,0.00,,,0.00,Wunderground v.1.12,2013-08-06 04:02:00,
2013-08-06 00:03:00,66.1,58.3,29.92,South,191,0.0,0.0,76,0.00,,,0.00,Wunderground v.1.12,2013-08-06 04:03:00,
2013-08-06 00:04:00,66.1,58.3,29.92,South,191,0.0,0.0,76,0.00,,,0.00,Wunderground v.1.12,2013-08-06 04:04:00,
2013-08-06 00:05:00,66.0,58.2,29.92,South,191,0.0,0.0,76,0.00,,,0.00,Wunderground v.1.12,2013-08-06 04:05:00,
2013-08-06 00:10:00,66.0,58.2,29.92,South,191,0.0,0.0,76,0.00,,,0.00,Wunderground v.1.12,2013-08-06 04:10:00,
2013-08-06 00:17:00,65.8,58.4,29.92,South,191,0.0,0.0,77,0.00,,,0.00,Wunderground v.1.12,2013-08-06 04:17:00,
2013-08-06 00:19:00,65.8,58.0,29.92,South,191,0.0,0.0,76,0.00,,,0.00,Wunderground v.1.12,2013-08-06 04:19:00,
2013-08-06 00:24:00,65.8,58.4,29.92,South,191,0.0,0.0,77,0.00,,,0.00,Wunderground v.1.12,2013-08-06 04:24:00,
2013-08-06 00:30:00,65.6,58.2,29.92,South,191,0.0,0.0,77,0.00,,,0.00,Wunderground v.1.12,2013-08-06 04:30:00,
2013-08-06 00:37:00,65.6,58.2,29.92,South,191,0.0,0.0,77,0.00,,,0.00,Wunderground v.1.12,2013-08-06 04:37:00,
2013-08-06 00:42:00,65.6,58.2,29.91,South,191,0.0,0.0,77,0.00,,,0.00,Wunderground v.1.12,2013-08-06 04:42:00,
2013-08-06 00:48:00,65.5,58.1,29.91,South,191,0.0,0.0,77,0.00,,,0.00,Wunderground v.1.12,2013-08-06 04:48:00,
2013-08-06 00:53:00,65.5,58.5,29.92,South,191,0.0,0.0,78,0.00,,,0.00,Wunderground v.1.12,2013-08-06 04:53:00,
2013-08-06 00:59:00,65.5,58.5,29.92,South,191,0.0,0.0,78,0.00,,,0.00,Wunderground v.1.12,2013-08-06 04:59:00,
2013-08-06 01:05:00,65.3,58.3,29.92,South,191,0.0,0.0,78,0.00,,,0.00,Wunderground v.1.12,2013-08-06 05:05:00,
2013-08-06 01:10:00,65.3,58.3,29.92,South,191,0.0,0.0,78,0.00,,,0.00,Wunderground v.1.12,2013-08-06 05:10:00,
2013-08-06 01:17:00,65.2,58.2,29.92,South,191,0.0,0.0,78,0.00,,,0.00,Wunderground v.1.12,2013-08-06 05:17:00,
2013-08-06 01:23:00,65.2,58.2,29.91,South,191,0.0,0.0,78,0.00,,,0.00,Wunderground v.1.12,2013-08-06 05:23:00,
2013-08-06 01:29:00,65.2,58.5,29.91,South,191,0.0,0.0,79,0.00,,,0.00,Wunderground v.1.12,2013-08-06 05:29:00,
2013-08-06 01:35:00,65.2,58.5,29.91,South,191,0.0,0.0,79,0.00,,,0.00,Wunderground v.1.12,2013-08-06 05:35:00,
2013-08-06 01:42:00,65.0,58.7,29.91,South,191,0.0,0.0,80,0.00,,,0.00,Wunderground v.1.12,2013-08-06 05:42:00,
2013-08-06 01:47:00,65.0,58.7,29.91,South,191,0.0,0.0,80,0.00,,,0.00,Wunderground v.1.12,2013-08-06 05:47:00,
2013-08-06 01:53:00,65.0,58.7,29.91,South,191,0.0,0.0,80,0.00,,,0.00,Wunderground v.1.12,2013-08-06 05:53:00,
2013-08-06 01:58:00,65.0,58.7,29.91,South,191,0.0,0.0,80,0.00,,,0.00,Wunderground v.1.12,2013-08-06 05:58:00,
2013-08-06 02:03:00,65.0,58.7,29.91,South,191,0.0,0.0,80,0.00,,,0.00,Wunderground v.1.12,2013-08-06 06:03:00,
2013-08-06 02:08:00,65.0,59.0,29.91,South,191,0.0,0.0,81,0.00,,,0.00,Wunderground v.1.12,2013-08-06 06:08:00,
2013-08-06 02:13:00,65.0,59.0,29.91,South,191,0.0,0.0,81,0.00,,,0.00,Wunderground v.1.12,2013-08-06 06:13:00,
2013-08-06 02:18:00,65.0,59.0,29.91,South,191,0.0,0.0,81,0.00,,,0.00,Wunderground v.1.12,2013-08-06 06:18:00,
2013-08-06 02:23:00,65.0,59.0,29.90,South,191,0.0,0.0,81,0.00,,,0.00,Wunderground v.1.12,2013-08-06 06:23:00,
2013-08-06 02:28:00,65.0,59.0,29.90,South,191,0.0,0.0,81,0.00,,,0.00,Wunderground v.1.12,2013-08-06 06:28:00,
2013-08-06 02:33:00,65.0,59.0,29.90,South,191,0.0,0.0,81,0.00,,,0.00,Wunderground v.1.12,2013-08-06 06:33:00,
2013-08-06 02:38:00,65.0,59.0,29.90,South,191,0.0,0.0,81,0.00,,,0.00,Wunderground v.1.12,2013-08-06 06:38:00,
2013-08-06 02:43:00,65.0,59.0,29.90,South,191,0.0,0.0,81,0.00,,,0.00,Wunderground v.1.12,2013-08-06 06:43:00,
2013-08-06 02:48:00,65.2,59.2,29.90,South,191,0.0,0.0,81,0.00,,,0.00,Wunderground v.1.12,2013-08-06 06:48:00,
2013-08-06 02:53:00,65.3,59.3,29.90,South,191,0.0,0.0,81,0.00,,,0.00,Wunderground v.1.12,2013-08-06 06:53:00,
2013-08-06 02:58:00,65.5,59.2,29.90,South,191,0.0,0.0,80,0.00,,,0.00,Wunderground v.1.12,2013-08-06 06:58:00,
2013-08-06 03:03:00,65.8,59.5,29.90,South,191,0.0,0.0,80,0.00,,,0.00,Wunderground v.1.12,2013-08-06 07:03:00,
2013-08-06 03:08:00,65.8,59.5,29.90,South,191,0.0,0.0,80,0.00,,,0.00,Wunderground v.1.12,2013-08-06 07:08:00,
2013-08-06 03:13:00,66.0,59.7,29.90,South,191,0.0,0.0,80,0.00,,,0.00,Wunderground v.1.12,2013-08-06 07:13:00,
2013-08-06 03:18:00,66.1,59.4,29.90,South,191,0.0,0.0,79,0.00,,,0.00,Wunderground v.1.12,2013-08-06 07:18:00,
2013-08-06 03:23:00,66.1,59.4,29.90,South,191,0.0,0.0,79,0.00,,,0.00,Wunderground v.1.12,2013-08-06 07:23:00,
2013-08-06 03:28:00,66.3,59.2,29.90,South,191,0.0,0.0,78,0.00,,,0.00,Wunderground v.1.12,2013-08-06 07:28:00,
2013-08-06 03:33:00,66.4,59.3,29.90,South,191,0.0,0.0,78,0.00,,,0.00,Wunderground v.1.12,2013-08-06 07:33:00,
2013-08-06 03:38:00,66.6,59.5,29.90,South,191,0.0,0.0,78,0.00,,,0.00,Wunderground v.1.12,2013-08-06 07:38:00,
2013-08-06 03:43:00,66.6,59.2,29.90,South,191,0.0,0.0,77,0.00,,,0.00,Wunderground v.1.12,2013-08-06 07:43:00,
2013-08-06 03:48:00,66.8,59.4,29.90,South,191,0.0,0.0,77,0.00,,,0.00,Wunderground v.1.12,2013-08-06 07:48:00,
2013-08-06 03:53:00,66.8,59.4,29.90,South,191,0.0,0.0,77,0.00,,,0.00,Wunderground v.1.12,2013-08-06 07:53:00,
2013-08-06 03:59:00,66.8,59.4,29.90,South,191,0.0,0.0,77,0.00,,,0.00,Wunderground v.1.12,2013-08-06 07:59:00,
2013-08-06 04:04:00,66.8,59.4,29.90,South,191,0.0,1.0,77,0.00,,,0.00,Wunderground v.1.12,2013-08-06 08:04:00,
2013-08-06 04:09:00,66.8,59.4,29.89,South,191,0.0,0.0,77,0.00,,,0.00,Wunderground v.1.12,2013-08-06 08:09:00,
2013-08-06 04:14:00,66.8,59.4,29.89,South,191,0.0,1.0,77,0.00,,,0.00,Wunderground v.1.12,2013-08-06 08:14:00,
2013-08-06 04:19:00,66.8,59.4,29.89,South,191,0.0,0.0,77,0.00,,,0.00,Wunderground v.1.12,2013-08-06 08:19:00,
2013-08-06 04:24:00,66.6,59.5,29.90,South,191,0.0,2.0,78,0.00,,,0.00,Wunderground v.1.12,2013-08-06 08:24:00,
2013-08-06 04:29:00,66.6,59.5,29.90,South,191,0.0,0.0,78,0.00,,,0.00,Wunderground v.1.12,2013-08-06 08:29:00,
2013-08-06 04:34:00,66.4,59.3,29.90,South,191,0.0,0.0,78,0.00,,,0.00,Wunderground v.1.12,2013-08-06 08:34:00,
2013-08-06 04:39:00,66.4,59.3,29.90,South,191,0.0,0.0,78,0.00,,,0.00,Wunderground v.1.12,2013-08-06 08:39:00,
2013-08-06 04:44:00,66.3,59.6,29.90,South,191,0.0,0.0,79,0.00,,,0.00,Wunderground v.1.12,2013-08-06 08:44:00,
2013-08-06 04:49:00,66.3,59.6,29.90,South,191,0.0,0.0,79,0.00,,,0.00,Wunderground v.1.12,2013-08-06 08:49:00,
2013-08-06 04:54:00,66.3,59.6,29.90,South,191,0.0,0.0,79,0.00,,,0.00,Wunderground v.1.12,2013-08-06 08:54:00,
2013-08-06 04:59:00,66.1,59.7,29.90,South,191,0.0,0.0,80,0.00,,,0.00,Wunderground v.1.12,2013-08-06 08:59:00,
2013-08-06 05:04:00,66.1,59.7,29.90,South,191,0.0,0.0,80,0.00,,,0.00,Wunderground v.1.12,2013-08-06 09:04:00,
2013-08-06 05:09:00,66.0,59.7,29.90,South,191,0.0,0.0,80,0.00,,,0.00,Wunderground v.1.12,2013-08-06 09:09:00,
2013-08-06 05:14:00,66.0,59.7,29.90,South,191,0.0,0.0,80,0.00,,,0.00,Wunderground v.1.12,2013-08-06 09:14:00,
2013-08-06 05:19:00,66.0,60.0,29.90,South,191,0.0,0.0,81,0.00,,,0.00,Wunderground v.1.12,2013-08-06 09:19:00,
2013-08-06 05:24:00,66.0,60.0,29.90,South,191,0.0,0.0,81,0.00,,,0.00,Wunderground v.1.12,2013-08-06 09:24:00,
2013-08-06 05:29:00,65.8,59.8,29.90,South,191,0.0,0.0,81,0.00,,,0.00,Wunderground v.1.12,2013-08-06 09:29:00,
2013-08-06 05:34:00,65.6,60.3,29.90,South,191,0.0,0.0,83,0.00,,,0.00,Wunderground v.1.12,2013-08-06 09:34:00,
2013-08-06 05:39:00,65.5,60.5,29.89,South,191,0.0,2.0,84,0.00,,,0.00,Wunderground v.1.12,2013-08-06 09:39:00,
2013-08-06 05:44:00,65.3,60.7,29.89,South,191,0.0,0.0,85,0.00,,,0.01,Wunderground v.1.12,2013-08-06 09:44:00,
2013-08-06 05:49:00,65.0,60.7,29.89,South,191,0.0,0.0,86,0.00,,,0.01,Wunderground v.1.12,2013-08-06 09:49:00,
2013-08-06 05:54:00,65.0,60.7,29.89,South,191,0.0,0.0,86,0.00,,,0.01,Wunderground v.1.12,2013-08-06 09:54:00,
2013-08-06 05:59:00,64.8,60.8,29.89,South,191,2.0,2.0,87,0.00,,,0.01,Wunderground v.1.12,2013-08-06 09:59:00,
2013-08-06 06:04:00,64.7,61.1,29.89,South,191,0.0,4.0,88,0.00,,,0.01,Wunderground v.1.12,2013-08-06 10:04:00,
2013-08-06 06:09:00,64.5,60.9,29.88,South,191,0.0,2.0,88,0.00,,,0.01,Wunderground v.1.12,2013-08-06 10:09:00,
2013-08-06 06:14:00,64.3,61.0,29.88,South,191,0.0,2.0,89,0.00,,,0.01,Wunderground v.1.12,2013-08-06 10:14:00,
2013-08-06 06:19:00,64.2,60.9,29.88,South,191,0.0,1.0,89,0.00,,,0.01,Wunderground v.1.12,2013-08-06 10:19:00,
2013-08-06 06:24:00,64.2,61.2,29.88,South,191,0.0,0.0,90,0.00,,,0.01,Wunderground v.1.12,2013-08-06 10:24:00,
2013-08-06 06:29:00,64.0,61.0,29.88,South,191,0.0,0.0,90,0.00,,,0.01,Wunderground v.1.12,2013-08-06 10:29:00,
2013-08-06 06:34:00,64.0,61.0,29.88,South,191,0.0,0.0,90,0.00,,,0.01,Wunderground v.1.12,2013-08-06 10:34:00,
2013-08-06 06:39:00,64.0,61.3,29.89,South,191,0.0,0.0,91,0.00,,,0.01,Wunderground v.1.12,2013-08-06 10:39:00,
2013-08-06 06:44:00,64.0,61.3,29.89,South,191,0.0,0.0,91,0.00,,,0.01,Wunderground v.1.12,2013-08-06 10:44:00,
2013-08-06 06:49:00,64.0,61.3,29.89,South,191,0.0,0.0,91,0.00,,,0.01,Wunderground v.1.12,2013-08-06 10:49:00,
2013-08-06 06:54:00,64.0,61.6,29.88,South,191,0.0,0.0,92,0.00,,,0.01,Wunderground v.1.12,2013-08-06 10:54:00,
2013-08-06 06:59:00,64.0,61.6,29.88,South,191,0.0,0.0,92,0.00,,,0.01,Wunderground v.1.12,2013-08-06 10:59:00,
2013-08-06 07:04:00,64.0,61.6,29.88,South,191,0.0,0.0,92,0.00,,,0.01,Wunderground v.1.12,2013-08-06 11:04:00,
2013-08-06 07:09:00,64.0,61.6,29.88,South,191,0.0,0.0,92,0.00,,,0.01,Wunderground v.1.12,2013-08-06 11:09:00,
2013-08-06 07:14:00,64.0,61.6,29.88,South,191,0.0,0.0,92,0.00,,,0.01,Wunderground v.1.12,2013-08-06 11:14:00,
2013-08-06 07:19:00,64.2,61.8,29.88,South,191,0.0,0.0,92,0.00,,,0.01,Wunderground v.1.12,2013-08-06 11:19:00,
2013-08-06 07:24:00,64.2,61.8,29.90,South,191,0.0,0.0,92,0.00,,,0.01,Wunderground v.1.12,2013-08-06 11:24:00,
2013-08-06 07:30:00,64.2,61.8,29.90,South,191,0.0,0.0,92,0.00,,,0.01,Wunderground v.1.12,2013-08-06 11:30:00,
2013-08-06 07:35:00,64.3,61.9,29.90,South,191,0.0,0.0,92,0.00,,,0.01,Wunderground v.1.12,2013-08-06 11:35:00,
2013-08-06 07:40:00,64.3,62.2,29.90,South,191,4.0,5.0,93,0.00,,,0.01,Wunderground v.1.12,2013-08-06 11:40:00,
2013-08-06 07:45:00,64.5,62.4,29.90,South,191,0.0,2.0,93,0.00,,,0.01,Wunderground v.1.12,2013-08-06 11:45:00,
2013-08-06 07:50:00,64.7,62.3,29.90,South,191,0.0,4.0,92,0.00,,,0.01,Wunderground v.1.12,2013-08-06 11:50:00,
2013-08-06 07:55:00,64.7,62.3,29.89,South,191,0.0,1.0,92,0.00,,,0.01,Wunderground v.1.12,2013-08-06 11:55:00,
2013-08-06 08:00:00,64.7,62.3,29.89,South,191,0.0,0.0,92,0.00,,,0.01,Wunderground v.1.12,2013-08-06 12:00:00,
2013-08-06 08:05:00,64.8,62.4,29.89,South,191,0.0,0.0,92,0.00,,,0.01,Wunderground v.1.12,2013-08-06 12:05:00,
2013-08-06 08:10:00,65.0,62.6,29.90,South,191,0.0,0.0,92,0.00,,,0.01,Wunderground v.1.12,2013-08-06 12:10:00,
2013-08-06 08:15:00,65.0,62.6,29.90,South,191,0.0,0.0,92,0.00,,,0.01,Wunderground v.1.12,2013-08-06 12:15:00,
2013-08-06 08:20:00,65.2,62.8,29.90,South,191,0.0,0.0,92,0.00,,,0.01,Wunderground v.1.12,2013-08-06 12:20:00,
2013-08-06 08:25:00,65.3,62.9,29.91,South,191,0.0,0.0,92,0.00,,,0.01,Wunderground v.1.12,2013-08-06 12:25:00,
2013-08-06 08:30:00,65.3,62.9,29.91,South,191,1.0,1.0,92,0.00,,,0.01,Wunderground v.1.12,2013-08-06 12:30:00,
2013-08-06 08:35:00,65.5,63.1,29.91,South,191,0.0,0.0,92,0.00,,,0.02,Wunderground v.1.12,2013-08-06 12:35:00,
2013-08-06 08:40:00,65.6,63.2,29.90,South,191,0.0,1.0,92,0.00,,,0.02,Wunderground v.1.12,2013-08-06 12:40:00,
2013-08-06 08:45:00,65.8,63.4,29.90,South,191,0.0,0.0,92,0.00,,,0.02,Wunderground v.1.12,2013-08-06 12:45:00,
2013-08-06 08:50:00,66.1,63.7,29.90,South,191,4.0,6.0,92,0.00,,,0.02,Wunderground v.1.12,2013-08-06 12:50:00,
2013-08-06 08:55:00,66.6,64.2,29.90,South,191,4.0,6.0,92,0.00,,,0.02,Wunderground v.1.12,2013-08-06 12:55:00,
2013-08-06 09:00:00,67.1,64.4,29.90,SE,134,0.0,5.0,91,0.00,,,0.02,Wunderground v.1.12,2013-08-06 13:00:00,
2013-08-06 09:05:00,67.1,63.7,29.90,SE,134,1.0,2.0,89,0.00,,,0.02,Wunderground v.1.12,2013-08-06 13:05:00,
2013-08-06 09:10:00,67.1,63.4,29.89,SW,217,0.0,6.0,88,0.00,,,0.02,Wunderground v.1.12,2013-08-06 13:10:00,
2013-08-06 09:15:00,67.4,63.1,29.89,SSW,213,0.0,1.0,86,0.00,,,0.02,Wunderground v.1.12,2013-08-06 13:15:00,
2013-08-06 09:20:00,67.8,62.8,29.89,South,180,0.0,5.0,84,0.00,,,0.02,Wunderground v.1.12,2013-08-06 13:20:00,
2013-08-06 09:25:00,67.8,62.4,29.89,South,173,0.0,5.0,83,0.00,,,0.02,Wunderground v.1.12,2013-08-06 13:25:00,
2013-08-06 09:30:00,67.9,62.5,29.89,South,173,0.0,1.0,83,0.00,,,0.02,Wunderground v.1.12,2013-08-06 13:30:00,
2013-08-06 09:35:00,67.9,62.2,29.89,South,173,0.0,1.0,82,0.00,,,0.02,Wunderground v.1.12,2013-08-06 13:35:00,
2013-08-06 09:40:00,67.8,61.4,29.90,SSW,212,1.0,6.0,80,0.00,,,0.02,Wunderground v.1.12,2013-08-06 13:40:00,
2013-08-06 09:45:00,67.9,61.5,29.90,SSW,212,2.0,4.0,80,0.00,,,0.02,Wunderground v.1.12,2013-08-06 13:45:00,
2013-08-06 09:50:00,67.9,61.5,29.90,SE,143,0.0,4.0,80,0.00,,,0.02,Wunderground v.1.12,2013-08-06 13:50:00,
2013-08-06 09:55:00,68.1,61.3,29.89,WSW,243,0.0,1.0,79,0.00,,,0.02,Wunderground v.1.12,2013-08-06 13:55:00,
2013-08-06 10:00:00,68.3,61.2,29.89,SW,231,0.0,4.0,78,0.00,,,0.02,Wunderground v.1.12,2013-08-06 14:00:00,
2013-08-06 10:05:00,68.8,61.7,29.89,SW,224,1.0,1.0,78,0.00,,,0.02,Wunderground v.1.12,2013-08-06 14:05:00,
2013-08-06 10:10:00,68.9,61.8,29.90,SW,223,0.0,2.0,78,0.00,,,0.02,Wunderground v.1.12,2013-08-06 14:10:00,
2013-08-06 10:15:00,69.3,61.4,29.90,SW,216,0.0,5.0,76,0.00,,,0.02,Wunderground v.1.12,2013-08-06 14:15:00,
2013-08-06 10:20:00,69.4,61.1,29.90,SW,220,5.0,5.0,75,0.00,,,0.02,Wunderground v.1.12,2013-08-06 14:20:00,
2013-08-06 10:25:00,69.6,61.3,29.89,SW,219,2.0,5.0,75,0.00,,,0.00,Wunderground v.1.12,2013-08-06 14:25:00,
2013-08-06 10:30:00,69.6,60.9,29.89,SW,222,0.0,5.0,74,0.00,,,0.00,Wunderground v.1.12,2013-08-06 14:30:00,
2013-08-06 10:35:00,69.8,61.1,29.89,SW,227,0.0,4.0,74,0.00,,,0.00,Wunderground v.1.12,2013-08-06 14:35:00,
2013-08-06 10:40:00,69.6,60.6,29.90,WSW,252,4.0,8.0,73,0.00,,,0.00,Wunderground v.1.12,2013-08-06 14:40:00,
2013-08-06 10:45:00,69.4,60.8,29.90,SW,225,4.0,7.0,74,0.00,,,0.00,Wunderground v.1.12,2013-08-06 14:45:00,
2013-08-06 10:50:00,69.6,60.9,29.90,WSW,253,4.0,6.0,74,0.00,,,0.00,Wunderground v.1.12,2013-08-06 14:50:00,
2013-08-06 10:55:00,69.9,60.8,29.90,SW,226,4.0,6.0,73,0.00,,,0.00,Wunderground v.1.12,2013-08-06 14:55:00,
2013-08-06 11:00:00,69.9,60.5,29.90,SW,217,0.0,5.0,72,0.00,,,0.00,Wunderground v.1.12,2013-08-06 15:00:00,
2013-08-06 11:05:00,69.6,60.2,29.90,WSW,243,4.0,6.0,72,0.00,,,0.00,Wunderground v.1.12,2013-08-06 15:05:00,
2013-08-06 11:10:00,69.4,60.4,29.90,South,185,0.0,5.0,73,0.00,,,0.00,Wunderground v.1.12,2013-08-06 15:10:00,
2013-08-06 11:15:00,69.3,60.3,29.90,SW,216,1.0,4.0,73,0.00,,,0.00,Wunderground v.1.12,2013-08-06 15:15:00,
2013-08-06 11:20:00,69.1,60.1,29.90,SW,217,2.0,6.0,73,0.00,,,0.00,Wunderground v.1.12,2013-08-06 15:20:00,
2013-08-06 11:25:00,68.8,59.8,29.90,ESE,112,5.0,5.0,73,0.00,,,0.00,Wunderground v.1.12,2013-08-06 15:25:00,
2013-08-06 11:30:00,68.6,60.0,29.90,SW,223,0.0,5.0,74,0.00,,,0.00,Wunderground v.1.12,2013-08-06 15:30:00,
2013-08-06 11:35:00,68.6,60.0,29.90,South,173,0.0,2.0,74,0.00,,,0.00,Wunderground v.1.12,2013-08-06 15:35:00,
2013-08-06 11:40:00,68.6,60.4,29.90,South,177,0.0,2.0,75,0.00,,,0.00,Wunderground v.1.12,2013-08-06 15:40:00,
2013-08-06 11:47:00,68.6,60.4,29.90,SSE,150,1.0,2.0,75,0.00,,,0.00,Wunderground v.1.12,2013-08-06 15:47:00,
2013-08-06 11:53:00,68.8,60.6,29.89,SSW,196,2.0,2.0,75,0.00,,,0.00,Wunderground v.1.12,2013-08-06 15:53:00,
2013-08-06 11:58:00,68.9,60.3,29.89,SW,215,0.0,1.0,74,0.00,,,0.00,Wunderground v.1.12,2013-08-06 15:58:00,
2013-08-06 12:03:00,69.1,60.5,29.89,SW,215,0.0,1.0,74,0.00,,,0.00,Wunderground v.1.12,2013-08-06 16:03:00,
2013-08-06 12:08:00,69.3,60.7,29.89,SE,145,0.0,3.0,74,0.00,,,0.00,Wunderground v.1.12,2013-08-06 16:08:00,
2013-08-06 12:13:00,69.3,60.7,29.89,SSE,161,0.0,1.0,74,0.00,,,0.00,Wunderground v.1.12,2013-08-06 16:13:00,
2013-08-06 12:18:00,69.4,60.8,29.89,West,261,4.0,4.0,74,0.00,,,0.00,Wunderground v.1.12,2013-08-06 16:18:00,
2013-08-06 12:23:00,69.6,60.9,29.88,SW,225,1.0,1.0,74,0.00,,,0.00,Wunderground v.1.12,2013-08-06 16:23:00,
2013-08-06 12:28:00,69.8,61.1,29.88,SSW,208,4.0,6.0,74,0.00,,,0.00,Wunderground v.1.12,2013-08-06 16:28:00,
2013-08-06 12:33:00,69.9,61.2,29.88,SW,225,1.0,1.0,74,0.00,,,0.00,Wunderground v.1.12,2013-08-06 16:33:00,
2013-08-06 12:38:00,70.1,61.0,29.88,SSW,196,0.0,1.0,73,0.00,,,0.00,Wunderground v.1.12,2013-08-06 16:38:00,
2013-08-06 12:43:00,70.1,61.0,29.88,SW,225,1.0,4.0,73,0.00,,,0.00,Wunderground v.1.12,2013-08-06 16:43:00,
2013-08-06 12:48:00,69.9,61.2,29.88,South,171,0.0,2.0,74,0.00,,,0.00,Wunderground v.1.12,2013-08-06 16:48:00,
2013-08-06 12:53:00,70.1,61.4,29.89,South,171,0.0,1.0,74,0.00,,,0.00,Wunderground v.1.12,2013-08-06 16:53:00,
2013-08-06 12:58:00,70.3,61.6,29.89,South,173,0.0,2.0,74,0.00,,,0.00,Wunderground v.1.12,2013-08-06 16:58:00,
2013-08-06 13:03:00,70.4,61.7,29.89,SSE,151,0.0,1.0,74,0.00,,,0.00,Wunderground v.1.12,2013-08-06 17:03:00,
2013-08-06 13:08:00,70.4,61.3,29.89,SSE,151,0.0,1.0,73,0.00,,,0.00,Wunderground v.1.12,2013-08-06 17:08:00,
2013-08-06 13:13:00,70.8,61.7,29.89,South,189,0.0,1.0,73,0.00,,,0.00,Wunderground v.1.12,2013-08-06 17:13:00,
2013-08-06 13:18:00,71.1,61.6,29.89,SW,214,5.0,5.0,72,0.00,,,0.00,Wunderground v.1.12,2013-08-06 17:18:00,
2013-08-06 13:23:00,71.3,61.8,29.89,SSW,212,2.0,4.0,72,0.00,,,0.00,Wunderground v.1.12,2013-08-06 17:23:00,
2013-08-06 13:27:00,71.3,61.4,29.89,SSE,164,1.0,4.0,71,0.00,,,0.00,Wunderground v.1.12,2013-08-06 17:27:00,
2013-08-06 13:33:00,71.5,62.0,29.89,SE,143,0.0,1.0,72,0.00,,,0.00,Wunderground v.1.12,2013-08-06 17:33:00,
2013-08-06 13:38:00,71.8,61.9,29.89,South,183,0.0,1.0,71,0.00,,,0.00,Wunderground v.1.12,2013-08-06 17:38:00,
2013-08-06 13:43:00,72.0,62.5,29.89,SSE,162,0.0,0.0,72,0.00,,,0.00,Wunderground v.1.12,2013-08-06 17:43:00,
2013-08-06 13:48:00,72.0,62.1,29.89,SSE,161,0.0,0.0,71,0.00,,,0.00,Wunderground v.1.12,2013-08-06 17:48:00,
2013-08-06 13:53:00,72.0,62.1,29.89,SSE,147,1.0,3.0,71,0.00,,,0.00,Wunderground v.1.12,2013-08-06 17:53:00,
2013-08-06 13:58:00,72.3,62.0,29.89,SSE,147,0.0,0.0,70,0.00,,,0.00,Wunderground v.1.12,2013-08-06 17:58:00,
2013-08-06 14:03:00,72.7,61.9,29.89,SSE,150,0.0,0.0,69,0.00,,,0.00,Wunderground v.1.12,2013-08-06 18:03:00,
2013-08-06 14:08:00,73.0,61.8,29.88,South,176,1.0,1.0,68,0.00,,,0.00,Wunderground v.1.12,2013-08-06 18:08:00,
2013-08-06 14:13:00,73.0,61.8,29.88,SSW,194,4.0,4.0,68,0.00,,,0.00,Wunderground v.1.12,2013-08-06 18:13:00,
2013-08-06 14:18:00,73.7,62.5,29.88,South,181,1.0,2.0,68,0.00,,,0.00,Wunderground v.1.12,2013-08-06 18:18:00,
2013-08-06 14:23:00,74.0,62.3,29.88,SE,143,4.0,7.0,67,0.00,,,0.00,Wunderground v.1.12,2013-08-06 18:23:00,
2013-08-06 14:28:00,74.2,62.1,29.88,SSE,163,0.0,2.0,66,0.00,,,0.00,Wunderground v.1.12,2013-08-06 18:28:00,
2013-08-06 14:33:00,74.2,62.5,29.88,SSE,166,1.0,1.0,67,0.00,,,0.00,Wunderground v.1.12,2013-08-06 18:33:00,
2013-08-06 14:38:00,74.4,62.7,29.88,SE,144,0.0,1.0,67,0.00,,,0.00,Wunderground v.1.12,2013-08-06 18:38:00,
2013-08-06 14:43:00,75.4,63.2,29.88,SE,140,0.0,3.0,66,0.00,,,0.00,Wunderground v.1.12,2013-08-06 18:43:00,
2013-08-06 14:48:00,75.8,63.2,29.88,SE,143,1.0,1.0,65,0.00,,,0.00,Wunderground v.1.12,2013-08-06 18:48:00,
2013-08-06 14:53:00,75.8,63.2,29.88,SSW,211,0.0,6.0,65,0.00,,,0.00,Wunderground v.1.12,2013-08-06 18:53:00,
2013-08-06 14:58:00,76.1,63.9,29.88,SE,144,1.0,5.0,66,0.00,,,0.00,Wunderground v.1.12,2013-08-06 18:58:00,
2013-08-06 15:03:00,76.7,63.6,29.88,SW,214,1.0,1.0,64,0.00,,,0.00,Wunderground v.1.12,2013-08-06 19:03:00,
2013-08-06 15:08:00,77.0,63.9,29.87,SE,140,1.0,2.0,64,0.00,,,0.00,Wunderground v.1.12,2013-08-06 19:08:00,
2013-08-06 15:13:00,77.7,63.2,29.87,WSW,237,0.0,4.0,61,0.00,,,0.00,Wunderground v.1.12,2013-08-06 19:13:00,
2013-08-06 15:18:00,78.1,63.6,29.87,SE,132,1.0,2.0,61,0.00,,,0.00,Wunderground v.1.12,2013-08-06 19:18:00,
2013-08-06 15:24:00,78.1,63.1,29.87,South,170,1.0,5.0,60,0.00,,,0.00,Wunderground v.1.12,2013-08-06 19:24:00,
2013-08-06 15:29:00,77.6,63.5,29.87,South,172,1.0,2.0,62,0.00,,,0.00,Wunderground v.1.12,2013-08-06 19:29:00,
2013-08-06 15:34:00,77.4,63.8,29.87,SE,142,0.0,8.0,63,0.00,,,0.00,Wunderground v.1.12,2013-08-06 19:34:00,
2013-08-06 15:39:00,78.1,64.0,29.86,South,187,5.0,5.0,62,0.00,,,0.00,Wunderground v.1.12,2013-08-06 19:39:00,
2013-08-06 15:44:00,78.3,63.3,29.86,SE,141,2.0,6.0,60,0.00,,,0.00,Wunderground v.1.12,2013-08-06 19:44:00,
2013-08-06 15:49:00,77.9,63.4,29.86,SSW,198,0.0,1.0,61,0.00,,,0.00,Wunderground v.1.12,2013-08-06 19:49:00,
2013-08-06 15:54:00,77.6,63.5,29.86,South,171,0.0,6.0,62,0.00,,,0.00,Wunderground v.1.12,2013-08-06 19:54:00,
2013-08-06 15:59:00,77.0,63.0,29.86,SW,220,0.0,6.0,62,0.00,,,0.00,Wunderground v.1.12,2013-08-06 19:59:00,
2013-08-06 16:04:00,76.8,63.2,29.86,SE,132,1.0,6.0,63,0.00,,,0.00,Wunderground v.1.12,2013-08-06 20:04:00,
2013-08-06 16:09:00,77.0,63.4,29.86,SSW,212,1.0,4.0,63,0.00,,,0.00,Wunderground v.1.12,2013-08-06 20:09:00,
2013-08-06 16:14:00,77.4,63.8,29.86,South,186,0.0,6.0,63,0.00,,,0.00,Wunderground v.1.12,2013-08-06 20:14:00,
2013-08-06 16:19:00,77.4,63.8,29.86,SSW,204,0.0,5.0,63,0.00,,,0.00,Wunderground v.1.12,2013-08-06 20:19:00,
2013-08-06 16:24:00,77.4,64.3,29.85,SSE,168,1.0,5.0,64,0.00,,,0.00,Wunderground v.1.12,2013-08-06 20:24:00,
2013-08-06 16:29:00,77.6,64.5,29.85,SE,133,0.0,9.0,64,0.00,,,0.00,Wunderground v.1.12,2013-08-06 20:29:00,
2013-08-06 16:33:00,77.7,64.1,29.85,SE,142,0.0,1.0,63,0.00,,,0.00,Wunderground v.1.12,2013-08-06 20:33:00,
2013-08-06 16:38:00,77.7,64.1,29.84,SSE,160,0.0,3.0,63,0.00,,,0.00,Wunderground v.1.12,2013-08-06 20:38:00,
2013-08-06 16:43:00,78.3,65.1,29.84,SE,137,0.0,1.0,64,0.00,,,0.00,Wunderground v.1.12,2013-08-06 20:43:00,
2013-08-06 16:48:00,78.5,64.9,29.84,SE,137,3.0,3.0,63,0.00,,,0.00,Wunderground v.1.12,2013-08-06 20:48:00,
2013-08-06 16:53:00,78.5,64.4,29.84,SE,140,13.0,13.0,62,0.00,,,0.00,Wunderground v.1.12,2013-08-06 20:53:00,
2013-08-06 16:58:00,77.9,64.7,29.84,SSE,149,1.0,2.0,64,0.00,,,0.00,Wunderground v.1.12,2013-08-06 20:58:00,
2013-08-06 17:03:00,77.7,65.0,29.84,South,185,0.0,2.0,65,0.00,,,0.00,Wunderground v.1.12,2013-08-06 21:03:00,
2013-08-06 17:08:00,77.7,64.5,29.84,SE,142,0.0,2.0,64,0.00,,,0.00,Wunderground v.1.12,2013-08-06 21:08:00,
2013-08-06 17:13:00,77.4,64.3,29.84,SSE,154,0.0,2.0,64,0.00,,,0.00,Wunderground v.1.12,2013-08-06 21:13:00,
2013-08-06 17:18:00,77.2,65.0,29.84,SE,140,0.0,4.0,66,0.00,,,0.00,Wunderground v.1.12,2013-08-06 21:18:00,
2013-08-06 17:23:00,77.0,65.2,29.84,SE,134,3.0,6.0,67,0.00,,,0.00,Wunderground v.1.12,2013-08-06 21:23:00,
2013-08-06 17:28:00,76.7,64.9,29.84,SSE,149,0.0,2.0,67,0.00,,,0.00,Wunderground v.1.12,2013-08-06 21:28:00,
2013-08-06 17:33:00,76.5,64.7,29.84,SE,146,4.0,5.0,67,0.00,,,0.00,Wunderground v.1.12,2013-08-06 21:33:00,
2013-08-06 17:38:00,76.3,64.5,29.84,SE,142,5.0,8.0,67,0.00,,,0.00,Wunderground v.1.12,2013-08-06 21:38:00,
2013-08-06 17:43:00,76.3,65.0,29.84,SE,129,9.0,9.0,68,0.00,,,0.00,Wunderground v.1.12,2013-08-06 21:43:00,
2013-08-06 17:48:00,76.3,65.0,29.84,SSE,150,3.0,4.0,68,0.00,,,0.00,Wunderground v.1.12,2013-08-06 21:48:00,
2013-08-06 17:53:00,76.1,64.8,29.84,SSE,152,0.0,4.0,68,0.00,,,0.00,Wunderground v.1.12,2013-08-06 21:53:00,
2013-08-06 17:58:00,75.8,64.5,29.84,SE,133,1.0,2.0,68,0.00,,,0.00,Wunderground v.1.12,2013-08-06 21:58:00,
2013-08-06 18:03:00,75.4,65.3,29.84,SE,139,0.0,1.0,71,0.00,,,0.00,Wunderground v.1.12,2013-08-06 22:03:00,
2013-08-06 18:08:00,74.6,65.8,29.84,SW,229,0.0,2.0,74,0.00,,,0.01,Wunderground v.1.12,2013-08-06 22:08:00,
2013-08-06 18:09:00,74.6,65.8,29.84,SW,229,0.0,2.0,74,0.00,,,0.01,Wunderground v.1.12,2013-08-06 22:09:00,
2013-08-06 18:14:00,73.9,65.9,29.84,SW,223,0.0,1.0,76,0.00,,,0.01,Wunderground v.1.12,2013-08-06 22:14:00,
2013-08-06 18:19:00,73.5,66.2,29.84,SW,223,0.0,0.0,78,0.00,,,0.01,Wunderground v.1.12,2013-08-06 22:19:00,
2013-08-06 18:24:00,73.2,66.3,29.84,SW,223,0.0,1.0,79,0.00,,,0.01,Wunderground v.1.12,2013-08-06 22:24:00,
2013-08-06 18:29:00,73.0,66.8,29.84,SW,223,0.0,0.0,81,0.00,,,0.01,Wunderground v.1.12,2013-08-06 22:29:00,
2013-08-06 18:34:00,73.2,67.0,29.84,SW,223,5.0,5.0,81,0.00,,,0.01,Wunderground v.1.12,2013-08-06 22:34:00,
2013-08-06 18:39:00,73.2,67.0,29.84,SW,223,1.0,2.0,81,0.00,,,0.01,Wunderground v.1.12,2013-08-06 22:39:00,
2013-08-06 18:44:00,73.3,67.1,29.84,SW,223,2.0,5.0,81,0.00,,,0.01,Wunderground v.1.12,2013-08-06 22:44:00,
2013-08-06 18:49:00,73.5,67.3,29.84,SW,223,0.0,0.0,81,0.00,,,0.01,Wunderground v.1.12,2013-08-06 22:49:00,
2013-08-06 18:54:00,73.7,67.5,29.84,SW,223,2.0,2.0,81,0.00,,,0.01,Wunderground v.1.12,2013-08-06 22:54:00,
2013-08-06 18:59:00,74.0,67.8,29.84,SW,223,0.0,0.0,81,0.00,,,0.01,Wunderground v.1.12,2013-08-06 22:59:00,
2013-08-06 19:04:00,74.6,68.4,29.84,South,174,3.0,5.0,81,0.00,,,0.01,Wunderground v.1.12,2013-08-06 23:04:00,
2013-08-06 19:09:00,74.9,67.9,29.84,SE,142,0.0,4.0,79,0.00,,,0.01,Wunderground v.1.12,2013-08-06 23:09:00,
2013-08-06 19:14:00,75.1,67.8,29.84,SSE,147,1.0,7.0,78,0.00,,,0.01,Wunderground v.1.12,2013-08-06 23:14:00,
2013-08-06 19:19:00,75.1,67.4,29.84,SE,139,2.0,3.0,77,0.00,,,0.01,Wunderground v.1.12,2013-08-06 23:19:00,
2013-08-06 19:24:00,75.3,67.6,29.84,SE,139,0.0,4.0,77,0.00,,,0.01,Wunderground v.1.12,2013-08-06 23:24:00,
2013-08-06 19:29:00,75.4,67.3,29.84,SE,139,0.0,1.0,76,0.00,,,0.01,Wunderground v.1.12,2013-08-06 23:29:00,
2013-08-06 19:34:00,75.4,67.3,29.84,SE,139,0.0,1.0,76,0.00,,,0.01,Wunderground v.1.12,2013-08-06 23:34:00,
2013-08-06 19:39:00,75.3,67.2,29.84,SE,139,0.0,4.0,76,0.00,,,0.01,Wunderground v.1.12,2013-08-06 23:39:00,
2013-08-06 19:44:00,75.1,67.0,29.84,SE,139,0.0,1.0,76,0.00,,,0.01,Wunderground v.1.12,2013-08-06 23:44:00,
2013-08-06 19:49:00,75.1,67.4,29.84,SE,139,0.0,4.0,77,0.00,,,0.01,Wunderground v.1.12,2013-08-06 23:49:00,
2013-08-06 19:54:00,74.9,67.2,29.84,SE,139,0.0,0.0,77,0.00,,,0.01,Wunderground v.1.12,2013-08-06 23:54:00,
2013-08-06 19:59:00,74.7,67.4,29.84,SE,139,0.0,2.0,78,0.00,,,0.01,Wunderground v.1.12,2013-08-06 23:59:00,
2013-08-06 20:04:00,74.6,67.3,29.84,SE,139,0.0,2.0,78,0.00,,,0.01,Wunderground v.1.12,2013-08-07 00:04:00,
2013-08-06 20:09:00,74.4,67.1,29.84,SE,139,0.0,2.0,78,0.00,,,0.01,Wunderground v.1.12,2013-08-07 00:09:00,
2013-08-06 20:14:00,74.4,67.5,29.84,SE,139,0.0,2.0,79,0.00,,,0.01,Wunderground v.1.12,2013-08-07 00:14:00,
2013-08-06 20:19:00,74.2,67.6,29.84,SE,139,1.0,2.0,80,0.00,,,0.01,Wunderground v.1.12,2013-08-07 00:19:00,
2013-08-06 20:24:00,74.2,67.6,29.84,SE,139,0.0,0.0,80,0.00,,,0.01,Wunderground v.1.12,2013-08-07 00:24:00,
2013-08-06 20:29:00,74.0,67.4,29.84,SE,139,1.0,1.0,80,0.00,,,0.01,Wunderground v.1.12,2013-08-07 00:29:00,
2013-08-06 20:34:00,73.9,67.3,29.84,SE,139,0.0,0.0,80,0.00,,,0.01,Wunderground v.1.12,2013-08-07 00:34:00,
2013-08-06 20:39:00,73.9,67.3,29.84,SE,139,0.0,1.0,80,0.00,,,0.01,Wunderground v.1.12,2013-08-07 00:39:00,
2013-08-06 20:44:00,73.7,67.1,29.84,SE,139,0.0,0.0,80,0.00,,,0.01,Wunderground v.1.12,2013-08-07 00:44:00,
2013-08-06 20:50:00,73.7,67.1,29.84,SE,139,1.0,2.0,80,0.00,,,0.01,Wunderground v.1.12,2013-08-07 00:50:00,
2013-08-06 20:55:00,73.7,67.1,29.84,SE,139,0.0,2.0,80,0.00,,,0.01,Wunderground v.1.12,2013-08-07 00:55:00,
2013-08-06 21:00:00,73.7,67.1,29.84,SE,139,0.0,1.0,80,0.00,,,0.01,Wunderground v.1.12,2013-08-07 01:00:00,
2013-08-06 21:05:00,73.5,66.9,29.84,SE,139,0.0,1.0,80,0.00,,,0.01,Wunderground v.1.12,2013-08-07 01:05:00,
2013-08-06 21:10:00,73.5,66.9,29.84,SE,139,0.0,2.0,80,0.00,,,0.01,Wunderground v.1.12,2013-08-07 01:10:00,
2013-08-06 21:15:00,73.5,66.9,29.84,SE,139,0.0,0.0,80,0.00,,,0.01,Wunderground v.1.12,2013-08-07 01:15:00,
2013-08-06 21:20:00,73.3,66.8,29.84,SE,139,0.0,0.0,80,0.00,,,0.01,Wunderground v.1.12,2013-08-07 01:20:00,
2013-08-06 21:25:00,73.3,66.8,29.84,SE,139,0.0,0.0,80,0.00,,,0.01,Wunderground v.1.12,2013-08-07 01:25:00,
2013-08-06 21:30:00,73.2,66.7,29.84,SE,139,0.0,1.0,80,0.00,,,0.01,Wunderground v.1.12,2013-08-07 01:30:00,
2013-08-06 21:35:00,73.0,66.5,29.84,SE,139,0.0,0.0,80,0.00,,,0.01,Wunderground v.1.12,2013-08-07 01:35:00,
2013-08-06 21:40:00,72.8,66.6,29.84,SE,139,0.0,0.0,81,0.00,,,0.01,Wunderground v.1.12,2013-08-07 01:40:00,
2013-08-06 21:45:00,72.7,66.5,29.84,SE,139,0.0,0.0,81,0.00,,,0.01,Wunderground v.1.12,2013-08-07 01:45:00,
2013-08-06 21:50:00,72.5,66.3,29.84,SE,139,0.0,0.0,81,0.00,,,0.01,Wunderground v.1.12,2013-08-07 01:50:00,
2013-08-06 21:55:00,72.3,66.1,29.84,SE,139,0.0,0.0,81,0.00,,,0.01,Wunderground v.1.12,2013-08-07 01:55:00,
2013-08-06 22:00:00,72.1,66.3,29.84,SE,139,0.0,0.0,82,0.00,,,0.01,Wunderground v.1.12,2013-08-07 02:00:00,
2013-08-06 22:05:00,72.0,66.2,29.84,SE,139,0.0,0.0,82,0.00,,,0.01,Wunderground v.1.12,2013-08-07 02:05:00,
2013-08-06 22:10:00,71.6,65.8,29.84,SE,139,0.0,0.0,82,0.00,,,0.01,Wunderground v.1.12,2013-08-07 02:10:00,
2013-08-06 22:15:00,71.5,66.1,29.84,SE,139,0.0,1.0,83,0.00,,,0.01,Wunderground v.1.12,2013-08-07 02:15:00,
2013-08-06 22:20:00,71.1,66.0,29.84,SE,139,0.0,1.0,84,0.00,,,0.01,Wunderground v.1.12,2013-08-07 02:20:00,
2013-08-06 22:25:00,70.9,66.2,29.84,SE,139,0.0,0.0,85,0.00,,,0.01,Wunderground v.1.12,2013-08-07 02:25:00,
2013-08-06 22:30:00,70.8,66.1,29.84,SE,139,0.0,0.0,85,0.00,,,0.01,Wunderground v.1.12,2013-08-07 02:30:00,
2013-08-06 22:35:00,70.6,65.9,29.84,SE,139,0.0,0.0,85,0.00,,,0.01,Wunderground v.1.12,2013-08-07 02:35:00,
2013-08-06 22:40:00,70.4,65.7,29.84,SE,139,0.0,0.0,85,0.00,,,0.01,Wunderground v.1.12,2013-08-07 02:40:00,
2013-08-06 22:45:00,70.1,65.7,29.84,SE,139,0.0,0.0,86,0.00,,,0.01,Wunderground v.1.12,2013-08-07 02:45:00,
2013-08-06 22:50:00,69.9,65.5,29.84,SE,139,0.0,0.0,86,0.00,,,0.01,Wunderground v.1.12,2013-08-07 02:50:00,
2013-08-06 22:55:00,69.8,65.4,29.84,SE,139,0.0,0.0,86,0.00,,,0.01,Wunderground v.1.12,2013-08-07 02:55:00,
2013-08-06 23:00:00,69.6,65.6,29.84,SE,139,0.0,0.0,87,0.00,,,0.01,Wunderground v.1.12,2013-08-07 03:00:00,
2013-08-06 23:05:00,69.3,65.3,29.84,SE,139,0.0,0.0,87,0.00,,,0.01,Wunderground v.1.12,2013-08-07 03:05:00,
2013-08-06 23:11:00,69.1,65.1,29.84,SE,139,0.0,0.0,87,0.00,,,0.01,Wunderground v.1.12,2013-08-07 03:11:00,
2013-08-06 23:16:00,68.9,64.9,29.84,SE,139,0.0,0.0,87,0.00,,,0.01,Wunderground v.1.12,2013-08-07 03:16:00,
2013-08-06 23:21:00,68.6,64.6,29.84,SE,139,0.0,0.0,87,0.00,,,0.01,Wunderground v.1.12,2013-08-07 03:21:00,
2013-08-06 23:26:00,68.4,64.7,29.84,SE,139,0.0,0.0,88,0.00,,,0.01,Wunderground v.1.12,2013-08-07 03:26:00,
2013-08-06 23:31:00,68.3,64.6,29.84,SE,139,0.0,0.0,88,0.00,,,0.01,Wunderground v.1.12,2013-08-07 03:31:00,
2013-08-06 23:36:00,68.1,64.4,29.84,SE,139,0.0,0.0,88,0.00,,,0.01,Wunderground v.1.12,2013-08-07 03:36:00,
2013-08-06 23:41:00,67.9,64.5,29.84,SE,139,0.0,0.0,89,0.00,,,0.01,Wunderground v.1.12,2013-08-07 03:41:00,
2013-08-06 23:47:00,67.8,64.4,29.84,SE,139,0.0,0.0,89,0.00,,,0.01,Wunderground v.1.12,2013-08-07 03:47:00,
2013-08-06 23:52:00,67.6,64.2,29.84,SE,139,0.0,0.0,89,0.00,,,0.01,Wunderground v.1.12,2013-08-07 03:52:00,
2013-08-06 23:58:00,67.4,64.0,29.84,SE,139,0.0,0.0,89,0.00,,,0.01,Wunderground v.1.12,2013-08-07 03:58:00,